Weather History for VTSP - November, 2011

Change the Weather History Date:

Saturday, November 26, 2011

  Actual Average Record
Temperature  
Mean Temperature 84 °F -  
Max Temperature 90 °F 88 °F - (-1)
Min Temperature 77 °F 74 °F - (-1)
Cooling Degree Days 18    
Growing Degree Days 34 (Base 50)    
Moisture  
Dew Point 73 °F    
Average Humidity 74    
Maximum Humidity 94    
Minimum Humidity 58    
Precipitation  
Precipitation 0.00 in 0.11 in - ()
Sea Level Pressure  
Sea Level Pressure 29.76 in    
Wind  
Wind Speed 7 mph ()    
Max Wind Speed 14 mph    
Max Gust Speed -    
Visibility 5.7 miles    
Events Rain    
Averages and records for this station are not official NWS values.
T = Trace of Precipitation, MM = Missing Value Source: Averaged Metar Reports

Daily Weather History Graph

Daily Weather History Graph

Search for Another Location

Airport or City:

Trip Planner

Search our weather history database for the weather conditions in past years. The results will help you decide how hot, cold, wet, or windy it might be!

Date:

Astronomy

Nov. 26, 2011 Rise Set
Actual Time 6:22 AM ICT 6:05 PM ICT
Civil Twilight 6:00 AM ICT 6:27 PM ICT
Nautical Twilight 5:34 AM ICT 6:53 PM ICT
Astronomical Twilight 5:08 AM ICT 7:18 PM ICT
Moon 7:11 AM ICT (11/26) 7:12 PM ICT (11/26)
Length of Visible Light 12h 27m
Length of Day
11h 42m
New Moon, 1% of the Moon is Illuminated
Nov 26
New Moon
Dec 2
First Quarter
Dec 10
Full
Dec 18
Last Quarter
Dec 25
New

Hourly Weather History & Observations

Time (ICT) Temp. Heat Index Dew Point Humidity Pressure Visibility Wind Dir Wind Speed Gust Speed Precip Events Conditions
12:00 AM 80.6 °F 85.4 °F 73.4 °F 79% 29.80 in 6.2 mi NNE 5.8 mph - N/A   Mostly Cloudy
12:30 AM 78.8 °F - 73.4 °F 83% 29.77 in 6.2 mi ENE 5.8 mph - N/A   Mostly Cloudy
1:00 AM 78.8 °F - 73.4 °F 83% 29.77 in 6.2 mi ENE 9.2 mph - N/A   Mostly Cloudy
1:30 AM 78.8 °F - 73.4 °F 83% 29.77 in 6.2 mi NE 4.6 mph - N/A   Mostly Cloudy
2:00 AM 78.8 °F - 73.4 °F 83% 29.77 in 6.2 mi East 6.9 mph - N/A   Mostly Cloudy
2:30 AM 78.8 °F - 73.4 °F 83% 29.74 in 6.2 mi NE 3.5 mph - N/A   Mostly Cloudy
3:00 AM 78.8 °F - 73.4 °F 83% 29.74 in 6.2 mi ENE 8.1 mph - N/A   Mostly Cloudy
3:30 AM 78.8 °F - 73.4 °F 83% 29.71 in 6.2 mi NE 6.9 mph - N/A   Mostly Cloudy
4:00 AM 80.6 °F 85.4 °F 73.4 °F 79% 29.74 in 6.2 mi ENE 5.8 mph - N/A   Mostly Cloudy
5:00 AM 80.6 °F 85.4 °F 73.4 °F 79% 29.74 in 6.2 mi ENE 5.8 mph - N/A   Mostly Cloudy
5:30 AM 78.8 °F - 73.4 °F 83% 29.74 in 6.2 mi ENE 11.5 mph - N/A   Mostly Cloudy
6:00 AM 77.0 °F - 73.4 °F 89% 29.74 in 3.1 mi East 6.9 mph - N/A Rain Light Rain
6:30 AM 77.0 °F - 73.4 °F 89% 29.77 in 3.7 mi ENE 8.1 mph - N/A   Mostly Cloudy
7:00 AM 77.0 °F - 75.2 °F 94% 29.77 in 4.3 mi ENE 4.6 mph - N/A   Mostly Cloudy
7:30 AM 77.0 °F - 75.2 °F 94% 29.77 in 4.3 mi ENE 6.9 mph - N/A   Mostly Cloudy
8:00 AM 80.6 °F 85.4 °F 73.4 °F 79% 29.80 in 4.3 mi ENE 9.2 mph - N/A   Mostly Cloudy
8:30 AM 82.4 °F 89.5 °F 75.2 °F 79% 29.80 in 6.2 mi ENE 9.2 mph - N/A   Scattered Clouds
9:00 AM 82.4 °F 89.5 °F 75.2 °F 79% 29.80 in 6.2 mi ENE 9.2 mph - N/A   Scattered Clouds
9:30 AM 82.4 °F 87.2 °F 71.6 °F 70% 29.83 in 5.0 mi ENE 11.5 mph - N/A   Scattered Clouds
10:00 AM 82.4 °F 87.2 °F 71.6 °F 70% 29.83 in 5.6 mi ENE 10.4 mph - N/A   Scattered Clouds
10:30 AM 86.0 °F 93.4 °F 73.4 °F 66% 29.80 in 6.2 mi ENE 6.9 mph - N/A   Partly Cloudy
11:00 AM 86.0 °F 93.4 °F 73.4 °F 66% 29.80 in 6.2 mi East 11.5 mph - N/A   Partly Cloudy
11:30 AM 86.0 °F 93.4 °F 73.4 °F 66% 29.80 in 6.2 mi East 11.5 mph - N/A   Partly Cloudy
12:00 PM 86.0 °F 93.4 °F 73.4 °F 66% 29.77 in 6.2 mi East 12.7 mph - N/A   Partly Cloudy
12:30 PM 86.0 °F 93.4 °F 73.4 °F 66% 29.77 in 6.2 mi East 13.8 mph - N/A   Scattered Clouds
1:00 PM 86.0 °F 95.1 °F 75.2 °F 70% 29.74 in 6.2 mi East 11.5 mph - N/A   Scattered Clouds
1:30 PM 87.8 °F 95.6 °F 73.4 °F 62% 29.74 in 6.2 mi ENE 10.4 mph - N/A   Scattered Clouds
2:00 PM 87.8 °F 95.6 °F 73.4 °F 62% 29.74 in 6.2 mi East 11.5 mph - N/A   Scattered Clouds
2:30 PM 89.6 °F 98.2 °F 73.4 °F 59% 29.71 in 6.2 mi ENE 10.4 mph - N/A   Scattered Clouds
3:00 PM 87.8 °F 95.6 °F 73.4 °F 62% 29.71 in 6.2 mi East 10.4 mph - N/A   Scattered Clouds
3:30 PM 87.8 °F 95.6 °F 73.4 °F 62% 29.71 in 5.6 mi East 9.2 mph - N/A   Scattered Clouds
4:00 PM 87.8 °F 95.6 °F 73.4 °F 62% 29.71 in 6.2 mi East 6.9 mph - N/A   Scattered Clouds
4:30 PM 87.8 °F 93.8 °F 71.6 °F 58% 29.68 in 6.2 mi East 10.4 mph - N/A   Scattered Clouds
5:00 PM 87.8 °F 93.8 °F 71.6 °F 58% 29.71 in 6.2 mi ENE 9.2 mph - N/A   Scattered Clouds
5:30 PM 86.0 °F 91.8 °F 71.6 °F 62% 29.71 in 5.6 mi ENE 6.9 mph - N/A   Scattered Clouds
6:00 PM 84.2 °F 90.9 °F 73.4 °F 70% 29.71 in 5.0 mi NE 5.8 mph - N/A   Scattered Clouds
6:30 PM 84.2 °F 90.9 °F 73.4 °F 70% 29.71 in 5.0 mi NE 5.8 mph - N/A   Scattered Clouds
7:00 PM 84 °F - 75 °F 69% 29.73 in 6 mi ENE 3.5 mph - -   Scattered Clouds
7:00 PM 82.4 °F 88.2 °F 73.4 °F 74% 29.74 in 5.0 mi NE 4.6 mph - N/A   Mostly Cloudy
7:30 PM 82.4 °F 88.2 °F 73.4 °F 74% 29.74 in 5.6 mi NNE 3.5 mph - N/A   Scattered Clouds
8:00 PM 80.6 °F 85.4 °F 73.4 °F 79% 29.77 in 5.6 mi ENE 3.5 mph - N/A   Scattered Clouds
8:30 PM 80.6 °F 85.4 °F 73.4 °F 79% 29.77 in 6.2 mi East 3.5 mph - N/A   Mostly Cloudy
9:00 PM 82.4 °F 88.2 °F 73.4 °F 74% 29.80 in 6.2 mi East 4.6 mph - N/A   Mostly Cloudy
9:30 PM 80.6 °F 85.4 °F 73.4 °F 79% 29.80 in 6.2 mi East 4.6 mph - N/A   Mostly Cloudy
10:00 PM 80.6 °F 85.4 °F 73.4 °F 79% 29.80 in 5.6 mi East 4.6 mph - N/A   Mostly Cloudy
10:30 PM 80.6 °F 85.4 °F 73.4 °F 79% 29.80 in 5.6 mi East 6.9 mph - N/A   Mostly Cloudy
11:00 PM 80.6 °F 85.4 °F 73.4 °F 79% 29.80 in 5.6 mi ENE 6.9 mph - N/A   Mostly Cloudy
11:30 PM 80.6 °F 85.4 °F 73.4 °F 79% 29.80 in 5.6 mi East 4.6 mph - N/A   Mostly Cloudy